www.pogodaiklimat.ru

Погода и климат >> Архив погоды >> Норвегия >> Воссеванген


ПОГОДА в Воссевангене

  • Прогноз погоды в Воссевангене
  • Монитор погоды в Воссевангене

АРХИВ ПОГОДЫ в Воссевангене

Время (UTC), дата Ветер
(напр.,м/с)
 
Видим.   Явления Облачность Т
(С)
Тd
(С)
f
(%)
Тe
(С)
Тes
(С)
Комфортность P
(гПа)
Po
(гПа)
Тmin
(С)
Tmax
(С)
R
(мм)
R24
(мм)
S
(см)
22 11.06 В 2-3
{3}
н/о н/о +17.8 +6.7 48 +18 +18 1020.2 1013.8
23 11.06 В 1-2
{3}
н/о н/о +16.8 +7.2 53 +18 +18 1020.3 1013.9
00 12.06 ЮВ 4-8
{8}
н/о н/о +18.1 +7.8 51 +18 +18 1021.2 1014.8
01 12.06 ЮВ 3-7
{10}
н/о н/о +17.0 +7.1 52 +17 +17 1021.3 1014.9
02 12.06 В 2-6
{7}
н/о н/о +16.2 +6.6 53 +16 +16 1021.1 1014.7
03 12.06 В 3-6
{7}
н/о н/о +16.0 +6.5 53 +16 +16 1021.6 1015.2
04 12.06 В 2-6
{8}
н/о н/о +15.8 +5.7 51 +16 +16 1021.3 1014.9
05 12.06 СВ 3-6
{9}
н/о н/о +15.5 +6.0 53 +15 +15 1021.7 1015.3
06 12.06 СВ 2-5
{10}
н/о н/о +15.3 +6.6 56 +15 +15 1021.1 1014.7 +14.8 +22.7
07 12.06 СВ 2-5
{6}
н/о н/о +15.4 +6.7 56 +15 +15 1021.0 1014.6
08 12.06 СВ 3-6
{7}
н/о н/о +15.6 +6.6 55 +15 +15 1021.0 1014.6
09 12.06 СВ 3-8
{8}
н/о н/о +16.1 +6.5 53 +16 +16 1020.9 1014.4
10 12.06 СВ 2-6
{8}
н/о н/о +15.8 +7.1 56 +16 +16 1020.6 1014.1
11 12.06 СВ 3-5
{6}
н/о н/о +16.7 +6.8 52 +17 +17 1019.5 1013.1
12 12.06 СВ 3-6
{8}
н/о н/о +17.3 +7.1 51 +17 +17 1018.9 1012.6
13 12.06 СВ 2-5
{6}
н/о н/о +17.9 +7.9 52 +18 +18 1017.8 1011.4
14 12.06 В 3-6
{6}
н/о н/о +18.5 +8.2 51 +19 +19 1017.4 1011.1
15 12.06 В 3-6
{7}
н/о н/о +17.4 +8.0 54 +17 +17 1017.2 1010.9
16 12.06 В 2-5
{9}
н/о н/о +17.5 +7.3 51 +18 +18 1016.6 1010.3
17 12.06 В 3-6
{8}
н/о н/о +17.1 +7.2 52 +17 +17 1016.2 1009.8
18 12.06 СВ 3-8
{9}
н/о н/о +15.6 +6.3 54 +15 +15 1015.7 1009.3 +15.2 +19.3
19 12.06 ЮВ 4-6
{8}
н/о н/о +14.9 +6.2 56 +14 +14 1014.8 1008.4
20 12.06 ЮВ 3-5
{6}
н/о н/о +14.6 +6.5 58 +14 +14 1014.7 1008.3
21 12.06 В 3-8
{8}
н/о н/о +14.3 +6.2 58 +14 +14 1014.3 1007.9
22 12.06 В 2-6
{7}
н/о н/о +13.9 +6.3 60 +14 +14 1013.9 1007.4
23 12.06 В 2-3
{6}
н/о н/о +13.6 +6.9 64 +13 +13 1013.0 1006.6
00 13.06 В 1-2
{8}
н/о н/о +11.2 +8.6 84 +11 +11 1012.6 1006.1 0.5
01 13.06 В 2-3
{4}
н/о н/о +10.8 +9.2 90 +9 +9 1011.2 1004.7
02 13.06 В 1-3
{4}
н/о н/о +11.0 +8.9 87 +11 +11 1009.7 1003.2
03 13.06 В 1-3
{4}
н/о н/о +10.8 +9.7 93 +10 +10 1007.8 1001.4
04 13.06 В 1-3
{5}
н/о н/о +10.6 +9.2 91 +10 +10 1007.3 1000.8
05 13.06 В 2-5
{5}
н/о н/о +11.2 +9.3 88 +10 +10 1006.6 1000.2
06 13.06 СВ 2-3
{5}
н/о н/о +11.6 +9.2 85 +10 +10 1006.7 1000.3 +10.6 +15.6 1
07 13.06 СВ 3-5
{8}
н/о н/о +12.2 +8.9 80 +11 +11 1007.2 1000.8
08 13.06 СВ 3-6
{7}
н/о н/о +13.2 +9.1 76 +12 +12 1007.1 1000.7
09 13.06 СВ 3-6
{7}
н/о н/о +14.0 +9.7 75 +13 +13 1006.7 1000.3
10 13.06 СВ 3-6
{7}
н/о н/о +15.3 +10.5 73 +15 +15 1006.4 1000.1
11 13.06 В 3-7
{8}
н/о н/о +18.5 +9.3 55 +19 +19 1006.3 1000.0
12 13.06 В 3-6
{8}
н/о н/о +20.1 +10.8 55 +22 +22 комфорт 1006.5 1000.3 1
13 13.06 СВ 2-5
{7}
н/о н/о +19.3 +9.2 52 +21 +21 комфорт 1007.0 1000.7
14 13.06 В 2-5
{7}
н/о н/о +20.0 +9.9 52 +22 +22 комфорт 1007.2 1000.9
15 13.06 В 2-6
{7}
н/о н/о +20.4 +9.3 49 +22 +22 комфорт 1007.3 1001.0
16 13.06 СЗ 2-5
{7}
н/о н/о +20.7 +8.4 45 +23 +23 комфорт 1007.4 1001.2
17 13.06 СЗ 2-3
{7}
н/о н/о +19.8 +6.9 43 +21 +21 комфорт 1008.0 1001.7
18 13.06 С 2-4
{7}
н/о н/о +19.4 +6.9 44 +21 +21 комфорт 1008.8 1002.5 +11.2 +21.3 1
19 13.06 СВ 1-2
{9}
н/о н/о +18.2 +7.3 49 +19 +19 1009.8 1003.5
20 13.06 СВ 2-3
{5}
н/о н/о +17.0 +6.8 51 +17 +17 1010.7 1004.4
21 13.06 СВ 2-5
{5}
н/о н/о +17.2 +6.1 48 +18 +18 1011.9 1005.6
22 13.06 ЮВ 1-3
{5}
н/о н/о +16.4 +5.7 49 +17 +17 1012.7 1006.3
23 13.06 СВ 3-6
{7}
н/о н/о +16.6 +6.2 50 +16 +16 1012.9 1006.5
00 14.06 СВ 4-7
{9}
н/о н/о +16.9 +5.5 47 +16 +16 1013.2 1006.8
01 14.06 С 4-8
{8}
н/о н/о +16.7 +5.4 47 +16 +16 1013.3 1007.0
02 14.06 С 3-5
{7}
н/о н/о +16.4 +5.7 49 +16 +16 1014.2 1007.8
03 14.06 В 1-2
{5}
н/о н/о +15.5 +6.3 54 +16 +16 1014.7 1008.3
04 14.06 В 2-4
{5}
н/о н/о +15.4 +6.7 56 +15 +15 1014.9 1008.5
05 14.06 В 1-2
{5}
н/о н/о +15.9 +7.7 58 +17 +17 1014.8 1008.4
06 14.06 В 1-3
{8}
н/о н/о +15.9 +7.7 58 +17 +17 1015.3 1008.9 +14.6 +19.5
07 14.06 СВ 2-4
{4}
н/о н/о +18.9 +7.1 46 +20 +20 1015.4 1009.1
08 14.06 СВ 3-6
{7}
н/о н/о +18.8 +7.3 47 +19 +19 1015.2 1008.8
09 14.06 СВ 2-4
{6}
н/о н/о +18.4 +6.9 47 +19 +19 1015.6 1009.3
10 14.06 СВ 3-9
{9}
н/о н/о +19.0 +7.1 46 +20 +20 1015.8 1009.4
11 14.06 СВ 2-5
{8}
н/о н/о +18.9 +8.0 49 +20 +20 1016.2 1009.8
12 14.06 ЮВ 1-3
{9}
н/о н/о +17.5 +10.4 63 +19 +19 1016.4 1010.0
13 14.06 СВ 2-4
{7}
н/о н/о +19.9 +8.9 49 +22 +22 комфорт 1015.8 1009.5
14 14.06 В 2-6
{7}
н/о н/о +22.2 +9.7 45 +24 +24 комфорт 1015.3 1009.0
15 14.06 В 2-4
{5}
н/о н/о +20.9 +9.2 47 +23 +23 комфорт 1015.3 1009.0
16 14.06 ЮЗ 2-6
{6}
н/о н/о +20.7 +8.0 44 +23 +23 комфорт 1015.4 1009.1
17 14.06 Ю 1-2
{5}
н/о н/о +20.4 +8.4 46 +23 +23 комфорт 1015.5 1009.2
18 14.06 ЮЗ 1-2
{7}
н/о н/о +19.4 +8.7 50 +21 +21 комфорт 1015.8 1009.5 +15.6 +22.5
19 14.06 В 1-1
{3}
н/о н/о +18.2 +9.0 55 +19 +19 1016.4 1010.0
20 14.06 ЮВ 2-5
{5}
н/о н/о +18.1 +8.4 53 +19 +19 1016.9 1010.5
21 14.06 СВ 2-3
{3}
н/о н/о +16.9 +9.3 61 +17 +17 1017.4 1011.0
22 14.06 В 1-2
{4}
н/о н/о +15.4 +10.4 72 +16 +16 1018.1 1011.6
23 14.06 СВ 1-2
{2}
н/о н/о +14.2 +10.2 77 +15 +15 1018.6 1012.1
00 15.06 СВ 1-2
{5}
н/о н/о +13.1 +9.7 80 +13 +13 1018.8 1012.3 0.2
01 15.06 штиль 0-1
{2}
н/о н/о +11.3 +9.1 86 +11 +11 1019.2 1012.7
02 15.06 В 1-2
{2}
н/о н/о +10.4 +8.5 88 +10 +10 1019.5 1012.9
03 15.06 В 1-1
{1}
н/о н/о +9.3 +8.1 92 +9 +9 1019.6 1013.0
04 15.06 С 1-1
{2}
н/о н/о +9.7 +8.5 92 +9 +9 1019.8 1013.2
05 15.06 Ю 1-2
{2}
н/о н/о +11.4 +8.8 84 +11 +11 1019.6 1013.0
06 15.06 З 1-2
{2}
н/о н/о +13.4 +8.7 73 +14 +14 1019.2 1012.8 +9.2 +19.3 0.2
07 15.06 З 1-2
{2}
н/о н/о +15.6 +9.3 66 +16 +16 1018.8 1012.3
08 15.06 З 2-3
{3}
н/о н/о +17.3 +9.7 61 +18 +18 1018.3 1011.9
09 15.06 С 2-4
{5}
н/о н/о +21.0 +8.3 44 +23 +23 комфорт 1017.5 1011.2
10 15.06 СВ 3-4
{5}
н/о н/о +22.3 +7.3 38 +23 +23 комфорт 1016.8 1010.5
11 15.06 В 2-4
{5}
н/о н/о +24.0 +6.8 33 +24 +24 комфорт 1016.1 1009.8
12 15.06 В 2-5
{6}
н/о н/о +24.5 +7.2 33 +25 +25 комфорт 1015.2 1009.0
13 15.06 С 2-5
{5}
н/о н/о +25.0 +7.2 32 +25 +25 комфорт 1014.3 1008.1
14 15.06 СВ 3-5
{5}
н/о н/о +25.9 +7.5 31 +26 +26 жарко 1013.4 1007.3
15 15.06 ЮВ 2-5
{6}
н/о н/о +26.9 +7.4 29 +27 +27 жарко 1012.8 1006.6
16 15.06 СЗ 2-3
{5}
н/о н/о +26.8 +7.8 30 +27 +27 жарко 1012.1 1005.9
17 15.06 Ю 1-3
{3}
н/о н/о +26.4 +7.0 29 +26 +26 жарко 1011.5 1005.4
18 15.06 ЮЗ 1-3
{6}
н/о н/о +24.2 +9.0 38 +25 +25 комфорт 1011.2 1005.0 +13.5 +27.5
19 15.06 С 1-2
{2}
н/о н/о +21.1 +11.4 54 +23 +23 комфорт 1011.4 1005.1
20 15.06 ЮВ 1-3
{4}
н/о н/о +21.3 +11.3 53 +23 +23 комфорт 1012.0 1005.7
21 15.06 ЮВ 1-3
{7}
н/о н/о +19.5 +13.0 66 +22 +22 комфорт 1013.5 1007.1
22 15.06 З 1-2
{3}
н/о н/о +17.4 +13.7 79 +18 +18 1013.4 1007.1
23 15.06 С 1-2
{2}
н/о н/о +16.7 +13.6 82 +18 +18 1013.2 1006.8
00 16.06 З 1-2
{7}
н/о н/о +16.0 +13.7 86 +17 +17 1013.0 1006.6 0.3
01 16.06 В 1-3
{3}
н/о н/о +15.5 +14.9 96 +16 +16 1012.8 1006.4
02 16.06 СВ 1-2
{4}
н/о н/о +15.4 +15.1 98 +16 +16 1012.0 1005.7
03 16.06 ЮВ 1-1
{3}
н/о н/о +15.0 +14.8 99 +15 +15 1011.9 1005.5
04 16.06 СВ 1-2
{2}
н/о н/о +15.3 +15.1 99 +16 +16 1011.5 1005.1
05 16.06 ЮЗ 1-1
{2}
н/о н/о +14.9 +14.7 99 +15 +15 1011.5 1005.1
06 16.06 В 1-2
{4}
н/о н/о +15.1 +15.1 100 +16 +16 1011.9 1005.5 +14.8 +24.5 4
07 16.06 В 1-2
{3}
н/о н/о +15.3 +15.3 100 +16 +16 1012.2 1005.8
08 16.06 СВ 2-4
{4}
н/о н/о +15.3 +15.3 100 +15 +15 1012.5 1006.1
09 16.06 СЗ 1-2
{3}
н/о н/о +15.4 +15.1 98 +16 +16 1012.5 1006.2
10 16.06 Ю 1-1
{2}
н/о н/о +15.2 +15.0 99 +16 +16 1012.9 1006.5
11 16.06 З 1-2
{2}
н/о н/о +16.0 +15.7 98 +17 +17 1013.2 1006.9
12 16.06 Ю 1-1
{4}
н/о н/о +15.1 +14.8 98 +16 +16 1013.5 1007.1 4
13 16.06 СЗ 1-2
{2}
н/о н/о +15.5 +14.4 93 +16 +16 1013.6 1007.2
14 16.06 СЗ 1-1
{2}
н/о н/о +16.1 +14.6 91 +17 +17 1013.8 1007.5
15 16.06 С 1-1
{2}
н/о н/о +17.0 +14.6 86 +18 +18 1013.9 1007.6
16 16.06 В 1-1
{2}
н/о н/о +17.3 +13.6 79 +18 +18 1013.8 1007.5
17 16.06 штиль 0-1
{2}
н/о н/о +16.3 +13.6 84 +16 +16 1013.8 1007.5
18 16.06 СВ 1-3
{3}
н/о н/о +16.2 +13.1 82 +17 +17 1013.9 1007.6 +15.0 +17.4 4
19 16.06 Ю 1-3
{3}
н/о н/о +15.1 +14.0 93 +16 +16 1014.3 1007.8
20 16.06 -2
{2}
н/о н/о +14.6 +12.3 86 1014.7 1008.3
21 16.06 Ю 1-3
{4}
н/о н/о +14.1 +10.3 78 +14 +14 1015.3 1008.9
22 16.06 З 1-2
{2}
н/о н/о +13.3 +9.7 79 +14 +14 1015.7 1009.3
23 16.06 СВ 1-2
{3}
н/о н/о +12.4 +10.5 88 +12 +12 1016.2 1009.7
00 17.06 В 1-1
{4}
н/о н/о +10.7 +10.1 96 +10 +10 1016.6 1010.0 0.5
01 17.06 СВ 1-1
{2}
н/о н/о +9.5 +9.2 98 +9 +9 1016.6 1010.1
02 17.06 штиль 0-1
{2}
н/о н/о +9.0 +8.9 99 +8 +8 1016.7 1010.1
03 17.06 штиль 0-1
{2}
н/о н/о +9.3 +9.2 99 +8 +8 1016.6 1010.0
04 17.06 СВ 1-2
{2}
н/о н/о +9.4 +9.3 99 +9 +9 1016.5 1010.0
05 17.06 В 1-2
{2}
н/о н/о +10.2 +9.8 97 +10 +10 1016.2 1009.6
06 17.06 СВ 2-3
{3}
н/о н/о +11.6 +10.2 91 +10 +10 1015.6 1009.1 +8.8 +16.2 0.6
07 17.06 СЗ 1-3
{3}
н/о н/о +13.2 +10.6 84 +13 +13 1015.0 1008.5
08 17.06 СВ 2-4
{4}
н/о н/о +16.3 +10.0 66 +16 +16 1014.4 1008.0
09 17.06 С 2-4
{4}
н/о н/о +18.6 +8.3 51 +20 +20 1013.6 1007.2
10 17.06 С 2-4
{4}
н/о н/о +20.8 +8.8 46 +23 +23 комфорт 1012.9 1006.7
11 17.06 С 1-3
{5}
н/о н/о +19.8 +6.9 43 +22 +22 комфорт 1012.3 1006.0
12 17.06 Ю 3-5
{5}
н/о н/о +20.0 +8.4 47 +21 +21 комфорт 1012.5 1006.3
13 17.06 З 2-3
{5}
н/о н/о +17.3 +10.9 66 +18 +18 1012.9 1006.5
14 17.06 З 1-2
{2}
н/о н/о +15.9 +11.5 75 +17 +17 1012.9 1006.6
15 17.06 ЮЗ 2-9
{9}
н/о н/о +18.4 +10.3 59 +19 +19 1012.5 1006.2
16 17.06 ЮЗ 2-5
{10}
н/о н/о +17.0 +10.2 64 +17 +17 1012.4 1006.0
17 17.06 В 1-3
{3}
н/о н/о +16.2 +11.6 74 +17 +17 1012.1 1005.7
18 17.06 З 1-2
{10}
н/о н/о +16.0 +12.0 77 +17 +17 1012.1 1005.7 +11.5 +21.4 0.4
19 17.06 Ю 1-6
{6}
н/о н/о +15.0 +11.0 77 +16 +16 1012.1 1005.7
20 17.06 В 1-2
{4}
н/о н/о +13.6 +12.3 92 +14 +14 1012.5 1006.1
21 17.06 ЮЗ 3-7
{7}
н/о н/о +14.9 +8.2 64 +14 +14 1012.5 1006.1
22 17.06 С 1-1
{4}
н/о н/о +13.0 +9.3 78 +13 +13 1013.1 1006.6
23 17.06 СВ 1-2
{2}
н/о н/о +12.7 +9.5 81 +13 +13 1013.0 1006.6
00 18.06 З 1-2
{7}
н/о н/о +11.9 +9.3 84 +12 +12 1012.6 1006.1 1
01 18.06 З 1-1
{3}
н/о н/о +11.6 +9.5 87 +11 +11 1012.3 1005.8
02 18.06 СВ 1-2
{3}
н/о н/о +11.1 +10.5 96 +11 +11 1012.3 1005.8
03 18.06 С 1-2
{4}
н/о н/о +11.1 +10.6 97 +11 +11 1012.2 1005.7
04 18.06 З 1-3
{3}
н/о н/о +11.1 +10.6 97 +11 +11 1012.1 1005.6
05 18.06 штиль 0-1
{2}
н/о н/о +11.2 +10.7 97 +10 +10 1011.6 1005.1
06 18.06 Ю 1-2
{4}
н/о н/о +11.5 +11.0 97 +11 +11 1011.7 1005.2 +10.9 +16.2 2
07 18.06 С 1-2
{2}
н/о н/о +11.8 +11.2 96 +12 +12 1011.6 1005.1
08 18.06 З 2-4
{4}
н/о н/о +12.4 +11.1 92 +11 +11 1011.7 1005.2
09 18.06 ЮЗ 2-5
{5}
н/о н/о +14.2 +9.8 75 +14 +14 1011.5 1005.1
10 18.06 СЗ 1-3
{5}
н/о н/о +14.8 +10.8 77 +15 +15 1011.5 1005.1
11 18.06 СВ 1-2
{2}
н/о н/о +16.3 +9.0 62 +17 +17 1011.1 1004.7
12 18.06 ЮЗ 2-4
{7}
н/о н/о +15.9 +8.9 63 +16 +16 1011.0 1004.6 0.5
13 18.06 Ю 1-2
{5}
н/о н/о +15.3 +9.4 68 +16 +16 1010.9 1004.5
14 18.06 Ю 1-3
{5}
н/о н/о +16.9 +9.3 61 +18 +18 1010.6 1004.2
15 18.06 В 1-2
{2}
н/о н/о +16.1 +11.1 72 +17 +17 1010.1 1003.8
17 18.06 ЮЗ 2-3
{5}
н/о н/о +16.1 +9.3 64 +16 +16 1010.1 1003.7
18 18.06 З 2-2
{6}
н/о н/о +15.4 +8.9 65 +15 +15 1010.0 1003.7 +11.4 +18.9 0.7
19 18.06 З 1-2
{3}
н/о н/о +14.8 +8.7 67 +15 +15 1010.3 1003.9
20 18.06 ЮЗ 1-2
{3}
н/о н/о +13.9 +8.7 71 +14 +14 1010.7 1004.2
21 18.06 С 1-2
{4}
н/о н/о +13.1 +8.2 72 +13 +13 1011.0 1004.6
22 18.06 штиль 0-1
{2}
н/о н/о +10.9 +8.5 85 +10 +10 1011.5 1005.0

 

Местоположение метеостанции Воссеванген (Норвегия): широта 60.63 долгота 6.43 высота над уровнем моря 54 м.

В архиве по умолчанию представлена погода в Воссевангене за последнюю неделю. Архивные данные за месяц целиком и за предыдущие месяцы, начиная с января 2011 года, Вы можете получить, выбрав интересующий диапазон дат из раскрывающегося списка и нажав кнопку "Ввод!".


*Определитесь, кто Вы:
робот инопланетянин человек

Внимание! Время в таблицах - всемирное. Для получения местного времени необходимо прибавить поправку, которая равна 1 ч.

Смотрите также архив погоды в соседних городах и на ближайших метеорологических станциях:

Погода в Булкене (Норвегия) (12 км)
Погода в Эванжере (Норвегия) (18 км)
Погода в Мьолфелле (Норвегия) (29 км)
Погода на Квамсое (Норвегия) (32 км)
Погода в Модалене (Норвегия) (36 км)
Погода в Улленсванге (Норвегия) (37 км)
Погода в Квамскогене (Норвегия) (38 км)
Погода в Фоссмарке (Норвегия) (41 км)
Погода в Клеваватнете (Норвегия) (44 км)
Погода в Мидтстове (Норвегия) (46 км)

Пояснения к столбцам:

Ветер - указаны скорость ветра в м/с - средняя за 10 мин, порывы в срок и между сроками (в фигурных скобках) и направление, откуда дует ветер: С - северный, СВ - северо-восточный, В - восточный, ЮВ - юго-восточный, Ю - южный, ЮЗ - юго-западный, З - западный, СЗ - северо-западный.
Видимость - горизонтальная дальность видимости в метрах или километрах. При видимости от 1 до 10 км при отсутствии осадков обычно наблюдается дымка, при ухудшении видимости до 1 км и менее - туман. В сухую погоду видимость может ухудшаться дымом, пылью или мглою.
Явления - указаны атмосферные явления, наблюдавшиеся в срок или в последний час перед сроком; фигурными скобками обозначены явления, наблюдавшиеся между сроками (за 1-3 часа до срока); квадратными скобками обозначены град или гололедные отложения с указанием их диаметра в мм.
Облачность - указаны через наклонную черту общая и нижняя облачность в баллах и высота нижней границы облаков в метрах; квадратными скобками обозначены формы облаков: Ci - перистые, Cs - перисто-слоистые, Cc - перисто-кучевые, Ac - высококучевые, As - высокослоистые, Sc - слоисто-кучевые, Ns - слоисто-дождевые, Cu - кучевые, Cb - кучево-дождевые. Подробнее классификацию облаков см. в Атласе облаков (PDF).
T - Температура воздуха - температура, измеренная на высоте 2 м над землей.
Td - Температура точки росы - температура, при понижении до которой содержащийся в воздухе водяной пар достигнет насыщения.
f - Относительная влажность воздуха - влажноcть воздуха, измеренная на высоте 2 м над землей.
Te - Эффективная температура - температура, которую ощущает одетый по сезону человек в тени. Характеристика душности погоды. При расчете учитывается влияние влажности воздуха и скорости ветра на теплоощущения человека.
Tes - Эффективная температура на солнце - температура, которую ощущает человек, с поправкой на солнечный нагрев. Характеристика знойности погоды. Зависит от высоты солнца над горизонтом, облачности и скорости ветра. Ночью, в пасмурную погоду, а также при ветре 12 м/с и более поправка равна нулю.
P - Атмосферное давление - приведенное к уровню моря атмосферное давление.
Po - Атмосферное давление - измеренное на уровне метеостанции атмосферное давление.
Tmin - Минимальная температура - минимум температуры воздуха на высоте 2 м над землей.
Tmax - Максимальная температура - максимум температуры воздуха на высоте 2 м над землей.
R - Количество осадков - Количество выпавших осадков за период времени, мм. При наведении курсора мыши на число - период времени, за который выпало указанное количество осадков.
R24 - Количество осадков - Количество выпавших осадков за 24 часа, мм.
S - Снежный покров - Высота снежного покрова, см. При наведении курсора мыши на число - состояние снежного покрова и степень покрытия местности в баллах.